Location: Domont
(49.0278°N, 2.3264°E)
Time: 08:54:15
(UTC+00:00)

AIST 2D - Visible Passes

Search period start: 25 June 2022 00:00
Search period end: 05 July 2022 00:00
Orbit: 433 x 449 km, 97.1° (Epoch: 24 June)

Date Brightness Start Highest point End Pass type
(mag) Time Alt. Az. Time Alt. Az. Time Alt. Az.
25 Jun ? 21:24:37 10° NNE 21:27:55 64° E 21:30:56 12° S visible
25 Jun ? 22:59:16 10° NW 23:00:03 11° WNW 23:00:52 10° WNW visible
26 Jun ? 20:47:29 10° NE 20:50:07 22° E 20:52:46 10° SSE visible
26 Jun ? 22:19:55 10° N 22:22:43 26° WNW 22:25:31 10° SW visible
27 Jun ? 21:41:51 10° N 21:45:11 75° WNW 21:48:21 11° SSW visible
28 Jun ? 21:04:20 10° NNE 21:07:25 34° E 21:10:17 11° SSE visible
28 Jun ? 22:37:34 10° NNW 22:39:48 17° WNW 22:42:02 10° WSW visible
29 Jun ? 21:59:06 10° N 22:02:17 44° WNW 22:05:28 10° SW visible
30 Jun ? 21:21:17 10° NNE 21:24:35 58° E 21:27:33 12° S visible
30 Jun ? 22:55:33 10° NW 22:56:45 12° WNW 22:57:55 10° W visible
01 Jul ? 20:44:06 10° NE 20:46:39 20° E 20:49:12 10° SE visible
01 Jul ? 22:16:24 10° N 22:19:17 28° WNW 22:22:10 10° SW visible
02 Jul ? 21:38:16 10° N 21:41:37 83° WNW 21:44:44 11° SSW visible
03 Jul ? 21:00:42 10° NNE 21:03:44 31° E 21:06:33 11° SSE visible
03 Jul ? 22:33:46 10° NNW 22:36:09 18° WNW 22:38:32 10° WSW visible
04 Jul ? 21:55:17 10° N 21:58:31 49° WNW 22:01:45 10° SSW visible
